OEO138 LSZH-ZSNJ

Flight info

Callsign OEO138
Flight time N/A
Altitude 31000
Route DEGES Z2 TUNUM DCT UMVEG DCT DIMLO DCT INVED DCT SOKRU DCT DINRO DCT UDROS UM859 KARDE UN644 ROLIN N644 ODILI/N0484F330 N644 TETRO DCT BARAD M747 SUBUT T923 ERLEV M11 RODAR A909 LEMOD N644 NEVIV/N0488F350 N644 DI A466 SULOM M890 LKN G598 SMR G336 KTM B345 NONIM/K0911S1070 B345 OLGUT Y3 LZP/K0904S1130 Y3 ENPAT W260 BIGOR W9 KDJ V69 WFX B213 ESPEG V154 SNF W269 OLPOV B213 WHA R343 HFE HFE54F
Aircraft MD11/H-SDE1E2E3FGHIJ2J3J4J5M1RWXY/LB1D1

Departure

Time 2026-04-25 20:59
Airport Zürich Airport (LSZH)

Arrival

Time N/A
Airport Nanjing Lukou International Airport (ZSNJ)
Time Latitude Longitude Altitude Speed Heading
2026-04-25 20:21 47.44596 8.56312 1404 ft 0 kts 65°
2026-04-25 20:45 47.44593 8.56304 1404 ft 4 kts 65°
2026-04-25 20:45 47.44582 8.56268 1406 ft 4 kts 63°
2026-04-25 20:45 47.44569 8.56236 1413 ft 4 kts 40°
2026-04-25 20:45 47.44551 8.56219 1413 ft 4 kts 17°
2026-04-25 20:46 47.44529 8.56215 1414 ft 4 kts 337°
2026-04-25 20:46 47.44507 8.56234 1414 ft 4 kts 332°
2026-04-25 20:46 47.44502 8.56237 1413 ft 1 kts 335°
2026-04-25 20:49 47.44503 8.56237 1405 ft 1 kts 335°
2026-04-25 20:50 47.44540 8.56211 1412 ft 9 kts 335°
2026-04-25 20:50 47.44618 8.56157 1410 ft 15 kts 335°
2026-04-25 20:50 47.44704 8.56098 1410 ft 12 kts 335°
2026-04-25 20:50 47.44804 8.56030 1410 ft 21 kts 335°
2026-04-25 20:51 47.44928 8.55930 1416 ft 17 kts 310°
2026-04-25 20:51 47.44954 8.55778 1413 ft 15 kts 276°
2026-04-25 20:51 47.44994 8.55660 1411 ft 12 kts 320°
2026-04-25 20:51 47.45071 8.55598 1415 ft 14 kts 335°
2026-04-25 20:52 47.45168 8.55531 1415 ft 18 kts 335°
2026-04-25 20:52 47.45242 8.55480 1417 ft 17 kts 335°
2026-04-25 20:52 47.45376 8.55387 1415 ft 15 kts 335°
2026-04-25 20:52 47.45472 8.55321 1413 ft 17 kts 334°
2026-04-25 20:53 47.45591 8.55239 1414 ft 18 kts 336°
2026-04-25 20:53 47.45667 8.55248 1412 ft 8 kts 51°
2026-04-25 20:53 47.45677 8.55306 1414 ft 4 kts 85°
2026-04-25 20:53 47.45676 8.55332 1413 ft 5 kts 94°
2026-04-25 20:54 47.45665 8.55476 1409 ft 16 kts 99°
2026-04-25 20:54 47.45653 8.55615 1413 ft 11 kts 98°
2026-04-25 20:54 47.45647 8.55707 1419 ft 8 kts 94°
2026-04-25 20:54 47.45641 8.55824 1419 ft 15 kts 94°
2026-04-25 20:55 47.45631 8.55968 1419 ft 13 kts 96°
2026-04-25 20:55 47.45620 8.56106 1421 ft 16 kts 96°
2026-04-25 20:55 47.45646 8.56252 1426 ft 13 kts 30°
2026-04-25 20:55 47.45732 8.56281 1426 ft 14 kts
2026-04-25 20:56 47.45825 8.56294 1427 ft 13 kts
2026-04-25 20:56 47.45914 8.56307 1423 ft 13 kts
2026-04-25 20:56 47.46023 8.56325 1420 ft 18 kts
2026-04-25 20:56 47.46122 8.56382 1421 ft 14 kts 17°
2026-04-25 20:57 47.46202 8.56348 1420 ft 11 kts 317°
2026-04-25 20:57 47.46207 8.56341 1421 ft 0 kts 317°
2026-04-25 20:58 47.46216 8.56329 1417 ft 12 kts 317°
2026-04-25 20:58 47.46467 8.55985 1415 ft 85 kts 317°
2026-04-25 20:58 47.47062 8.55174 1403 ft 145 kts 317°
2026-04-25 20:58 47.47915 8.54009 1420 ft 183 kts 317°
2026-04-25 20:59 47.48868 8.52714 1800 ft 186 kts 322°
2026-04-25 20:59 47.49913 8.51583 2383 ft 186 kts 326°
2026-04-25 20:59 47.50961 8.50493 2961 ft 186 kts 326°
2026-04-25 20:59 47.52041 8.49353 3243 ft 198 kts 327°
2026-04-25 21:00 47.53089 8.48044 3692 ft 196 kts 312°
2026-04-25 21:00 47.53365 8.47499 3835 ft 197 kts 303°
2026-04-25 21:00 47.53016 8.42251 4693 ft 204 kts 243°
2026-04-25 21:01 47.52327 8.40360 4913 ft 214 kts 240°
2026-04-25 21:01 47.51441 8.38561 5150 ft 218 kts 223°
2026-04-25 21:01 47.50106 8.37468 5309 ft 228 kts 192°
2026-04-25 21:01 47.48523 8.37568 5633 ft 232 kts 160°
2026-04-25 21:02 47.47203 8.38901 6024 ft 233 kts 128°
2026-04-25 21:02 47.46353 8.40919 6520 ft 230 kts 117°
2026-04-25 21:02 47.45893 8.43180 6860 ft 235 kts 96°
2026-04-25 21:02 47.45788 8.45661 7019 ft 247 kts 91°
2026-04-25 21:03 47.45774 8.48240 7185 ft 256 kts 89°
2026-04-25 21:03 47.45784 8.50904 7356 ft 262 kts 89°
2026-04-25 21:03 47.45802 8.53640 7483 ft 269 kts 87°
2026-04-25 21:03 47.45879 8.56429 7643 ft 275 kts 86°
2026-04-25 21:04 47.45978 8.59291 7752 ft 283 kts 86°
2026-04-25 21:04 47.46086 8.62234 7894 ft 289 kts 86°
2026-04-25 21:04 47.46196 8.65246 8095 ft 300 kts 86°
2026-04-25 21:04 47.46309 8.68398 8349 ft 315 kts 86°
2026-04-25 21:05 47.46424 8.71684 8734 ft 326 kts 87°
2026-04-25 21:05 47.46526 8.75056 9281 ft 328 kts 88°
2026-04-25 21:05 47.46457 8.78414 9982 ft 327 kts 97°
2026-04-25 21:05 47.46083 8.81687 10548 ft 329 kts 101°
2026-04-25 21:06 47.45613 8.85096 10856 ft 340 kts 102°
2026-04-25 21:06 47.45095 8.88563 11103 ft 353 kts 101°
2026-04-25 21:06 47.44606 8.92150 11225 ft 369 kts 100°
2026-04-25 21:06 47.44443 8.93422 11305 ft 373 kts 100°
2026-04-25 21:07 47.43671 8.99776 11940 ft 380 kts 99°
2026-04-25 21:07 47.43219 9.03620 12440 ft 379 kts 99°
2026-04-25 21:07 47.42768 9.07473 12997 ft 382 kts 99°
2026-04-25 21:07 47.42331 9.11353 13516 ft 385 kts 96°
2026-04-25 21:08 47.42152 9.15298 14038 ft 386 kts 89°
2026-04-25 21:08 47.42146 9.19273 14511 ft 388 kts 88°
2026-04-25 21:08 47.42166 9.21923 14828 ft 390 kts 88°
2026-04-25 21:08 47.42187 9.25940 15306 ft 393 kts 88°
2026-04-25 21:09 47.42162 9.34057 16237 ft 398 kts 89°
2026-04-25 21:09 47.42121 9.38151 16783 ft 400 kts 89°
2026-04-25 21:09 47.42070 9.42277 17258 ft 402 kts 89°
2026-04-25 21:10 47.42013 9.46415 17730 ft 405 kts 89°
2026-04-25 21:10 47.41952 9.50587 18190 ft 408 kts 89°
2026-04-25 21:10 47.41887 9.54786 18624 ft 410 kts 89°
2026-04-25 21:10 47.41822 9.59010 19014 ft 413 kts 89°
2026-04-25 21:11 47.41755 9.63264 19413 ft 415 kts 89°
2026-04-25 21:11 47.41685 9.67537 19796 ft 418 kts 89°
2026-04-25 21:11 47.41614 9.71834 20153 ft 420 kts 89°
2026-04-25 21:11 47.41541 9.76161 20525 ft 423 kts 89°
2026-04-25 21:12 47.41465 9.80514 20887 ft 425 kts 89°
2026-04-25 21:12 47.41327 9.84889 21236 ft 429 kts 92°
2026-04-25 21:12 47.41031 9.89294 21579 ft 433 kts 94°
2026-04-25 21:12 47.40797 9.92227 21821 ft 435 kts 94°
2026-04-25 21:13 47.40309 9.98189 22318 ft 439 kts 94°
2026-04-25 21:13 47.39954 10.02669 22695 ft 441 kts 93°
2026-04-25 21:13 47.39610 10.07181 23072 ft 443 kts 93°
2026-04-25 21:13 47.39274 10.11717 23423 ft 446 kts 93°
2026-04-25 21:14 47.38946 10.16219 23773 ft 449 kts 92°
2026-04-25 21:14 47.38612 10.20811 24065 ft 451 kts 92°
2026-04-25 21:14 47.38277 10.25414 24372 ft 453 kts 93°
2026-04-25 21:14 47.37938 10.30045 24650 ft 455 kts 93°
2026-04-25 21:15 47.37595 10.34697 24933 ft 457 kts 93°
2026-04-25 21:15 47.37249 10.39358 25233 ft 459 kts 93°
2026-04-25 21:15 47.36899 10.44049 25485 ft 461 kts 93°
2026-04-25 21:15 47.36547 10.48755 25806 ft 460 kts 94°
2026-04-25 21:16 47.36194 10.53457 26044 ft 462 kts 93°
2026-04-25 21:16 47.35835 10.58171 26320 ft 464 kts 94°
2026-04-25 21:16 47.35473 10.62916 26607 ft 467 kts 93°
2026-04-25 21:16 47.35106 10.67681 26865 ft 469 kts 94°
2026-04-25 21:17 47.34736 10.72469 27143 ft 471 kts 94°
2026-04-25 21:17 47.34361 10.77284 27420 ft 472 kts 94°
2026-04-25 21:17 47.33985 10.82098 27621 ft 475 kts 94°
2026-04-25 21:17 47.33605 10.86942 27942 ft 476 kts 94°
2026-04-25 21:18 47.33221 10.91796 28136 ft 477 kts 94°
2026-04-25 21:18 47.32834 10.96666 28307 ft 479 kts 94°
2026-04-25 21:18 47.32442 11.01556 28544 ft 481 kts 94°
2026-04-25 21:18 47.32031 11.06444 28763 ft 483 kts 94°
2026-04-25 21:19 47.31611 11.11358 28956 ft 484 kts 94°
2026-04-25 21:19 47.31193 11.16299 29171 ft 486 kts 94°
2026-04-25 21:19 47.30779 11.21249 29346 ft 488 kts 94°
2026-04-25 21:19 47.30367 11.26216 29593 ft 489 kts 94°
2026-04-25 21:20 47.29955 11.31195 29831 ft 490 kts 94°
2026-04-25 21:20 47.29676 11.34570 29934 ft 491 kts 94°
2026-04-25 21:20 47.29126 11.41191 30157 ft 493 kts 94°
2026-04-25 21:20 47.28706 11.46206 30346 ft 494 kts 94°
2026-04-25 21:21 47.28282 11.51236 30520 ft 496 kts 94°
2026-04-25 21:21 47.27855 11.56283 30695 ft 497 kts 94°
2026-04-25 21:21 47.27425 11.61333 30871 ft 499 kts 95°
2026-04-25 21:21 47.26991 11.66402 31068 ft 500 kts 95°
2026-04-25 21:22 47.26108 11.76629 31110 ft 505 kts 95°
2026-04-25 21:22 47.25212 11.86884 31105 ft 504 kts 95°
2026-04-25 21:23 47.24311 11.97097 31107 ft 504 kts 95°
2026-04-25 21:23 47.23407 12.07247 31111 ft 504 kts 95°
2026-04-25 21:24 47.22487 12.17470 31105 ft 504 kts 95°
2026-04-25 21:24 47.21538 12.27681 31112 ft 504 kts 95°
2026-04-25 21:25 47.20558 12.37891 31112 ft 504 kts 95°
2026-04-25 21:25 47.19596 12.48104 31120 ft 504 kts 95°
2026-04-25 21:26 47.18639 12.58310 31109 ft 502 kts 95°
2026-04-25 21:26 47.17678 12.68478 31103 ft 503 kts 95°
2026-04-25 21:27 47.16706 12.78664 31112 ft 503 kts 95°
2026-04-25 21:27 47.15725 12.88828 31116 ft 503 kts 95°
2026-04-25 21:28 47.14736 12.98989 31114 ft 501 kts 95°
2026-04-25 21:28 47.13738 13.09132 31100 ft 502 kts 95°
2026-04-25 21:29 47.12736 13.19229 31101 ft 502 kts 96°
2026-04-25 21:29 47.11719 13.29381 31104 ft 502 kts 96°
2026-04-25 21:30 47.10695 13.39504 31098 ft 501 kts 96°
2026-04-25 21:30 47.09820 13.47921 31093 ft 502 kts 96°
2026-04-25 21:31 47.08556 13.59749 31097 ft 502 kts 96°
2026-04-25 21:31 47.07492 13.69875 31096 ft 502 kts 96°
2026-04-25 21:32 47.06432 13.79989 31081 ft 501 kts 96°
2026-04-25 21:32 47.05366 13.90090 31080 ft 502 kts 96°
2026-04-25 21:33 47.04288 14.00204 31078 ft 501 kts 96°
2026-04-25 21:33 47.03203 14.10292 31078 ft 501 kts 97°
2026-04-25 21:34 47.02107 14.20393 31072 ft 501 kts 97°
2026-04-25 21:34 47.01002 14.30492 31065 ft 501 kts 97°
2026-04-25 21:35 46.99896 14.40509 31060 ft 501 kts 97°
2026-04-25 21:35 46.98777 14.50576 31065 ft 502 kts 98°
2026-04-25 21:36 46.97641 14.60718 31061 ft 506 kts 98°
2026-04-25 21:36 46.96460 14.70876 31058 ft 506 kts 99°
2026-04-25 21:37 46.95467 14.79302 31052 ft 506 kts 98°
2026-04-25 21:37 46.94088 14.91175 31048 ft 506 kts 99°
2026-04-25 21:38 46.92908 15.01400 31045 ft 512 kts 99°
2026-04-25 21:38 46.91704 15.11693 31027 ft 512 kts 99°
2026-04-25 21:39 46.90502 15.21871 31026 ft 512 kts 99°
2026-04-25 21:39 46.89283 15.32138 31018 ft 513 kts 101°
2026-04-25 21:40 46.88044 15.42479 31022 ft 519 kts 101°
2026-04-25 21:40 46.86788 15.52882 31022 ft 518 kts 101°
2026-04-25 21:41 46.85527 15.63246 31019 ft 518 kts 101°
2026-04-25 21:41 46.84257 15.73614 31016 ft 520 kts 101°
2026-04-25 21:42 46.82964 15.84070 31011 ft 525 kts 102°
2026-04-25 21:42 46.81616 15.94521 31006 ft 524 kts 102°
2026-04-25 21:43 46.80284 16.04910 31006 ft 524 kts 102°
2026-04-25 21:43 46.78948 16.15430 30995 ft 524 kts 102°
2026-04-25 21:44 46.77620 16.25864 31000 ft 523 kts 102°